Location: Baix
(44.7118°N, 4.7648°E)
Time: 00:02:03
(UTC+00:00)

Vanguard 1 Rocket - Pass Details

Date: 09 October 2022
Orbit: 650 x 4225 km, 34.3° (Epoch: 05 December)

Event Time Altitude Azimuth Distance (km) Brightness Sun altitude
Rises 21:10:26 0° 269° (W) 7,984 12.7 -41.5°
Reaches altitude 10° 21:16:44 10° 266° (W) 6,536 12.1 -42.3°
Enters shadow 21:31:54 46° 224° (SW) 3,027 9.8 -44.2°
